Hinckley, MN

2:09 AM CST on December 08, 2019 (GMT -0600)
Hinckley

Weather History for K04W - October, 2019

Change the Weather History Date:

Wednesday, October 30, 2019

  Actual Average (KJMR) Record (KJMR)
Temperature  
Mean Temperature 26 °F -  
Max Temperature 32 °F 51 °F 78 °F (1950)
Min Temperature 19 °F 27 °F 4 °F (1984)
Degree Days  
Heating Degree Days 40    
Moisture  
Dew Point 18 °F    
Average Humidity 71    
Maximum Humidity 93    
Minimum Humidity 55    
Precipitation  
Precipitation 0.00 in - - ()
Sea Level Pressure  
Sea Level Pressure 30.26 in    
Wind  
Wind Speed 6 mph (WSW)    
Max Wind Speed 12 mph    
Max Gust Speed -    
Visibility 10 miles    
Events      
Averages and records for this station are not official NWS values.
T = Trace of Precipitation, MM = Missing Value Source: NWS Daily Summary

Daily Weather History Graph

Daily Weather History Graph

Search for Another Location

Airport or City:

Astronomy

Oct. 30, 2019 Rise Set
Actual Time 7:49 AM CDT 6:00 PM CDT
Civil Twilight 7:17 AM CDT 6:31 PM CDT
Nautical Twilight 6:42 AM CDT 7:06 PM CDT
Astronomical Twilight 6:08 AM CDT 7:41 PM CDT
Moon 10:39 AM CDT (10/30) 8:01 PM CDT (10/30)
Length of Visible Light 11h 13m
Length of Day
10h 11m
Waxing Crescent, 9% of the Moon is Illuminated
Oct 30
Waxing Crescent
Nov 4
First Quarter
Nov 12
Full
Nov 19
Last Quarter
Nov 26
New

Hourly Weather History & Observations

Time (CDT) Temp. Windchill Dew Point Humidity Pressure Visibility Wind Dir Wind Speed Gust Speed Precip Events Conditions
12:19 AM 23.0 °F 17.0 °F 17.6 °F 80% 30.31 in 10.0 mi SW 4.6 mph - N/A   Clear
12:36 AM 23.0 °F 14.7 °F 17.6 °F 80% 30.31 in 10.0 mi SW 6.9 mph - N/A   Clear
12:55 AM 23.0 °F 15.8 °F 17.6 °F 80% 30.31 in 10.0 mi SW 5.8 mph - N/A   Clear
1:16 AM 23.0 °F 17.0 °F 17.6 °F 80% 30.31 in 10.0 mi SW 4.6 mph - N/A   Clear
1:35 AM 23.0 °F 15.8 °F 17.6 °F 80% 30.31 in 10.0 mi SW 5.8 mph - N/A   Clear
1:58 AM 21.2 °F 13.6 °F 17.6 °F 86% 30.31 in 10.0 mi WSW 5.8 mph - N/A   Clear
2:15 AM 23.0 °F 14.7 °F 17.6 °F 80% 30.31 in 10.0 mi WSW 6.9 mph - N/A   Clear
2:35 AM 23.0 °F 14.7 °F 17.6 °F 80% 30.30 in 10.0 mi WSW 6.9 mph - N/A   Clear
2:36 AM 23.0 °F 14.7 °F 17.6 °F 80% 30.30 in 10.0 mi WSW 6.9 mph - N/A   Clear
2:55 AM 23.0 °F 14.7 °F 17.6 °F 80% 30.30 in 10.0 mi WSW 6.9 mph - N/A   Clear
2:56 AM 23.0 °F 14.7 °F 17.6 °F 80% 30.30 in 10.0 mi WSW 6.9 mph - N/A   Clear
3:19 AM 23.0 °F 14.7 °F 17.6 °F 80% 30.30 in 10.0 mi WSW 6.9 mph - N/A   Clear
3:36 AM 23.0 °F 14.7 °F 17.6 °F 80% 30.30 in 10.0 mi WSW 6.9 mph - N/A   Clear
3:55 AM 21.2 °F 13.6 °F 17.6 °F 86% 30.30 in 10.0 mi WSW 5.8 mph - N/A   Clear
4:15 AM 21.2 °F 13.6 °F 17.6 °F 86% 30.30 in 10.0 mi WSW 5.8 mph - N/A   Clear
4:16 AM 21.2 °F 13.6 °F 17.6 °F 86% 30.30 in 10.0 mi WSW 5.8 mph - N/A   Clear
4:35 AM 21.2 °F 14.9 °F 17.6 °F 86% 30.30 in 10.0 mi SW 4.6 mph - N/A   Clear
4:58 AM 21.2 °F 16.4 °F 17.6 °F 86% 30.31 in 10.0 mi SW 3.5 mph - N/A   Clear
5:15 AM 21.2 °F 16.4 °F 17.6 °F 86% 30.31 in 10.0 mi SSW 3.5 mph - N/A   Clear
5:35 AM 21.2 °F 14.9 °F 17.6 °F 86% 30.31 in 10.0 mi South 4.6 mph - N/A   Clear
5:36 AM 21.2 °F 16.4 °F 17.6 °F 86% 30.31 in 10.0 mi SSW 3.5 mph - N/A   Clear
5:55 AM 19.4 °F 14.3 °F 17.6 °F 93% 30.31 in 10.0 mi SW 3.5 mph - N/A   Clear
6:19 AM 19.4 °F 14.3 °F 17.6 °F 93% 30.31 in 10.0 mi SW 3.5 mph - N/A   Clear
6:36 AM 19.4 °F 14.3 °F 17.6 °F 93% 30.31 in 10.0 mi SW 3.5 mph - N/A   Clear
6:55 AM 19.4 °F - 17.6 °F 93% 30.31 in 10.0 mi Calm Calm - N/A   Scattered Clouds
7:15 AM 21.2 °F 14.9 °F 17.6 °F 86% 30.31 in 10.0 mi SSW 4.6 mph - N/A   Mostly Cloudy
7:16 AM 21.2 °F 14.9 °F 17.6 °F 86% 30.31 in 10.0 mi SSW 4.6 mph - N/A   Mostly Cloudy
7:40 AM 21.2 °F 14.9 °F 17.6 °F 86% 30.32 in 10.0 mi SSW 4.6 mph - N/A   Overcast
7:57 AM 21.2 °F 14.9 °F 17.6 °F 86% 30.32 in 10.0 mi SSW 4.6 mph - N/A   Overcast
8:15 AM 21.2 °F 14.9 °F 17.6 °F 86% 30.32 in 10.0 mi SW 4.6 mph - N/A   Overcast
8:35 AM 21.2 °F 16.4 °F 17.6 °F 86% 30.32 in 10.0 mi SW 3.5 mph - N/A   Scattered Clouds
8:36 AM 21.2 °F 16.4 °F 17.6 °F 86% 30.32 in 10.0 mi SW 3.5 mph - N/A   Scattered Clouds
8:55 AM 21.2 °F 14.9 °F 19.4 °F 93% 30.32 in 10.0 mi SW 4.6 mph - N/A   Mostly Cloudy
8:56 AM 21.2 °F 14.9 °F 19.4 °F 93% 30.32 in 10.0 mi SW 4.6 mph - N/A   Mostly Cloudy
9:19 AM 23.0 °F 17.0 °F 19.4 °F 86% 30.31 in 10.0 mi SW 4.6 mph - N/A   Overcast
9:36 AM 23.0 °F 14.7 °F 19.4 °F 86% 30.32 in 10.0 mi SW 6.9 mph - N/A   Overcast
9:55 AM 24.8 °F 17.9 °F 19.4 °F 80% 30.31 in 10.0 mi WSW 5.8 mph - N/A   Overcast
9:56 AM 24.8 °F 17.9 °F 19.4 °F 80% 30.31 in 10.0 mi WSW 5.8 mph - N/A   Overcast
10:15 AM 26.6 °F 20.0 °F 19.4 °F 74% 30.31 in 10.0 mi SW 5.8 mph - N/A   Overcast
10:16 AM 26.6 °F 21.2 °F 19.4 °F 74% 30.31 in 10.0 mi SW 4.6 mph - N/A   Overcast
10:38 AM 28.4 °F 22.2 °F 19.4 °F 69% 30.31 in 10.0 mi SW 5.8 mph - N/A   Overcast
10:57 AM 28.4 °F 19.1 °F 19.4 °F 69% 30.31 in 10.0 mi West 10.4 mph - N/A   Overcast
11:16 AM 30.2 °F 23.4 °F 17.6 °F 60% 30.31 in 10.0 mi WSW 6.9 mph - N/A   Overcast
11:35 AM 30.2 °F 20.8 °F 17.6 °F 60% 30.31 in 10.0 mi SW 11.5 mph - N/A   Overcast
11:55 AM 30.2 °F 21.9 °F 17.6 °F 60% 30.31 in 10.0 mi SW 9.2 mph - N/A   Overcast
11:59 AM 30.2 °F 21.9 °F 15.8 °F 55% 30.31 in 10.0 mi SW 9.2 mph - N/A   Overcast
12:18 PM 30.2 °F 21.3 °F 17.6 °F 60% 30.31 in 10.0 mi WSW 10.4 mph - N/A   Overcast
12:35 PM 30.2 °F 23.4 °F 15.8 °F 55% 30.30 in 10.0 mi WSW 6.9 mph - N/A   Overcast
12:55 PM 30.2 °F 23.4 °F 15.8 °F 55% 30.29 in 10.0 mi West 6.9 mph - N/A   Overcast
12:56 PM 30.2 °F 24.3 °F 15.8 °F 55% 30.29 in 10.0 mi West 5.8 mph - N/A   Overcast
1:15 PM 30.2 °F 22.6 °F 17.6 °F 60% 30.28 in 10.0 mi WSW 8.1 mph - N/A   Overcast
1:20 PM 30.2 °F 21.9 °F 17.6 °F 60% 30.28 in 10.0 mi WSW 9.2 mph - N/A   Overcast
1:37 PM 30.2 °F 22.6 °F 17.6 °F 60% 30.28 in 10.0 mi WSW 8.1 mph - N/A   Overcast
1:56 PM 30.2 °F 22.6 °F 17.6 °F 60% 30.27 in 10.0 mi West 8.1 mph - N/A   Overcast
2:15 PM 30.2 °F 22.6 °F 17.6 °F 60% 30.26 in 10.0 mi SW 8.1 mph - N/A   Overcast
2:35 PM 32.0 °F 25.6 °F 17.6 °F 55% 30.25 in 10.0 mi WSW 6.9 mph - N/A   Overcast
2:59 PM 32.0 °F 24.8 °F 17.6 °F 55% 30.25 in 10.0 mi WSW 8.1 mph - N/A   Overcast
3:16 PM 32.0 °F 24.2 °F 17.6 °F 55% 30.24 in 10.0 mi WSW 9.2 mph - N/A   Overcast
3:35 PM 32.0 °F 24.8 °F 17.6 °F 55% 30.24 in 10.0 mi SW 8.1 mph - N/A   Overcast
3:36 PM 32.0 °F 24.8 °F 17.6 °F 55% 30.24 in 10.0 mi WSW 8.1 mph - N/A   Overcast
3:55 PM 32.0 °F 24.8 °F 17.6 °F 55% 30.24 in 10.0 mi WSW 8.1 mph - N/A   Overcast
3:56 PM 32.0 °F 25.6 °F 17.6 °F 55% 30.23 in 10.0 mi WSW 6.9 mph - N/A   Overcast
4:19 PM 32.0 °F 26.4 °F 17.6 °F 55% 30.23 in 10.0 mi WNW 5.8 mph - N/A   Overcast
4:36 PM 30.2 °F 25.4 °F 17.6 °F 60% 30.23 in 10.0 mi WNW 4.6 mph - N/A   Overcast
4:55 PM 30.2 °F 23.4 °F 17.6 °F 60% 30.22 in 10.0 mi West 6.9 mph - N/A   Overcast
5:15 PM 30.2 °F 24.3 °F 19.4 °F 64% 30.22 in 10.0 mi WNW 5.8 mph - N/A   Overcast
5:35 PM 30.2 °F 25.4 °F 17.6 °F 60% 30.23 in 10.0 mi West 4.6 mph - N/A   Overcast
5:39 PM 30.2 °F 26.7 °F 17.6 °F 60% 30.23 in 10.0 mi West 3.5 mph - N/A   Overcast
5:57 PM 30.2 °F 23.4 °F 17.6 °F 60% 30.22 in 10.0 mi West 6.9 mph - N/A   Overcast
6:16 PM 30.2 °F 23.4 °F 17.6 °F 60% 30.22 in 10.0 mi West 6.9 mph - N/A   Overcast
6:35 PM 30.2 °F 24.3 °F 17.6 °F 60% 30.22 in 10.0 mi West 5.8 mph - N/A   Overcast
6:36 PM 30.2 °F 24.3 °F 17.6 °F 60% 30.22 in 10.0 mi West 5.8 mph - N/A   Overcast
6:55 PM 30.2 °F 26.7 °F 17.6 °F 60% 30.22 in 10.0 mi West 3.5 mph - N/A   Overcast
6:59 PM 30.2 °F 24.3 °F 17.6 °F 60% 30.22 in 10.0 mi West 5.8 mph - N/A   Overcast
7:18 PM 30.2 °F 26.7 °F 17.6 °F 60% 30.21 in 10.0 mi West 3.5 mph - N/A   Overcast
7:35 PM 30.2 °F 26.7 °F 19.4 °F 64% 30.20 in 10.0 mi West 3.5 mph - N/A   Overcast
7:55 PM 30.2 °F 26.7 °F 19.4 °F 64% 30.19 in 10.0 mi West 3.5 mph - N/A   Overcast
7:56 PM 30.2 °F 26.7 °F 19.4 °F 64% 30.19 in 10.0 mi West 3.5 mph - N/A   Overcast
8:15 PM 30.2 °F 25.4 °F 19.4 °F 64% 30.19 in 10.0 mi West 4.6 mph - N/A   Overcast
8:20 PM 30.2 °F 25.4 °F 19.4 °F 64% 30.19 in 10.0 mi West 4.6 mph - N/A   Overcast
8:37 PM 30.2 °F 26.7 °F 17.6 °F 60% 30.19 in 10.0 mi West 3.5 mph - N/A   Overcast
8:56 PM 30.2 °F 26.7 °F 19.4 °F 64% 30.18 in 10.0 mi NW 3.5 mph - N/A   Overcast
9:15 PM 30.2 °F 25.4 °F 17.6 °F 60% 30.19 in 10.0 mi NW 4.6 mph - N/A   Overcast
9:16 PM 30.2 °F 25.4 °F 17.6 °F 60% 30.19 in 10.0 mi NW 4.6 mph - N/A   Overcast
9:35 PM 28.4 °F 23.3 °F 17.6 °F 64% 30.19 in 10.0 mi NW 4.6 mph - N/A   Overcast
9:39 PM 28.4 °F 22.2 °F 17.6 °F 64% 30.19 in 10.0 mi NW 5.8 mph - N/A   Overcast
9:57 PM 28.4 °F 23.3 °F 17.6 °F 64% 30.19 in 10.0 mi NW 4.6 mph - N/A   Overcast
10:16 PM 28.4 °F 22.2 °F 17.6 °F 64% 30.20 in 10.0 mi NW 5.8 mph - N/A   Overcast
10:35 PM 28.4 °F 22.2 °F 17.6 °F 64% 30.19 in 10.0 mi WNW 5.8 mph - N/A   Overcast
10:36 PM 28.4 °F 23.3 °F 17.6 °F 64% 30.19 in 10.0 mi WNW 4.6 mph - N/A   Overcast
10:55 PM 28.4 °F 23.3 °F 17.6 °F 64% 30.19 in 10.0 mi NW 4.6 mph - N/A   Overcast
11:17 PM 28.4 °F 22.2 °F 17.6 °F 64% 30.18 in 10.0 mi NW 5.8 mph - N/A   Overcast
11:36 PM 28.4 °F 24.6 °F 17.6 °F 64% 30.18 in 10.0 mi NW 3.5 mph - N/A   Overcast
11:55 PM 26.6 °F 22.6 °F 17.6 °F 69% 30.17 in 10.0 mi WNW 3.5 mph - N/A   Overcast
11:56 PM 26.6 °F 22.6 °F 17.6 °F 69% 30.17 in 10.0 mi NW 3.5 mph - N/A   Overcast